Вернуться в каталог

DELTA 1 DEB

YO

АктивенVLEO
NORAD 228·DEBRIS·🇺🇸 United States

Запущен Feb 8, 1962 с Cape Canaveral Space Force Station

Loading…

Ближайшие Пролёты (ближайшие 24 часа)

TLE

СвежийSource: Space-Track

Эпоха: Sep 14, 2026, 05:53 UTC

1 00228U 62002C   26257.24563762  .00039973  00000-0  50395-3 0  9995
2 00228  48.4283 201.4941 0002507 186.6719 173.4196 15.59100914456973

Отслеживайте DELTA 1 DEB в реальном времени с AllMySat

Download on the App Store